owner,sensor,date,latitude,longitude,vertical_datum,wind_speed,wind_to_direction,wind_speed_of_gust,qcFlag 
DISL,ioos:station:DISL:DISL:1,2010-03-01T00:00:00Z,30.2513,-88.0778,9.68,2.95,227.2,-9999.0,'1111122,1111122,1111122' 
DISL,ioos:station:DISL:DISL:1,2010-03-01T00:30:00Z,30.2513,-88.0778,9.68,2.61,240.3,-9999.0,'1111122,1111122,1111122' 
DISL,ioos:station:DISL:DISL:1,2010-03-01T01:00:00Z,30.2513,-88.0778,9.68,2.6,230.9,-9999.0,'1111122,1111122,1111122' 
DISL,ioos:station:DISL:DISL:1,2010-03-01T01:30:00Z,30.2513,-88.0778,9.68,2.5,223.9,-9999.0,'1111122,1111122,1111122' 
DISL,ioos:station:DISL:DISL:1,2010-03-01T02:00:00Z,30.2513,-88.0778,9.68,2.18,221.8,-9999.0,'1111122,1111122,1111122' 
DISL,ioos:station:DISL:DISL:1,2010-03-01T02:30:00Z,30.2513,-88.0778,9.68,2.18,224.7,-9999.0,'1111122,1111122,1111122' 
DISL,ioos:station:DISL:DISL:1,2010-03-01T03:00:00Z,30.2513,-88.0778,9.68,1.68,205.9,-9999.0,'1111122,1111122,1111122' 
DISL,ioos:station:DISL:DISL:1,2010-03-01T03:30:00Z,30.2513,-88.0778,9.68,1.81,212.1,-9999.0,'1111122,1111122,1111122' 
DISL,ioos:station:DISL:DISL:1,2010-03-01T04:00:00Z,30.2513,-88.0778,9.68,1.9,230.6,-9999.0,'1111122,1111122,1111122' 
DISL,ioos:station:DISL:DISL:1,2010-03-01T04:30:00Z,30.2513,-88.0778,9.68,2.03,226.0,-9999.0,'1111122,1111122,1111122' 
DISL,ioos:station:DISL:DISL:1,2010-03-01T05:00:00Z,30.2513,-88.0778,9.68,1.82,225.3,-9999.0,'1111122,1111122,1111122' 
DISL,ioos:station:DISL:DISL:1,2010-03-01T05:30:00Z,30.2513,-88.0778,9.68,1.9,241.1,-9999.0,'1111122,1111122,1111122' 
DISL,ioos:station:DISL:DISL:1,2010-03-01T06:00:00Z,30.2513,-88.0778,9.68,1.5,244.6,-9999.0,'1111122,1111122,1111122' 
DISL,ioos:station:DISL:DISL:1,2010-03-01T06:30:00Z,30.2513,-88.0778,9.68,1.44,262.7,-9999.0,'1111122,1111122,1111122' 
DISL,ioos:station:DISL:DISL:1,2010-03-01T07:00:00Z,30.2513,-88.0778,9.68,1.14,280.1,-9999.0,'1111122,1111122,1111122' 
DISL,ioos:station:DISL:DISL:1,2010-03-01T07:30:00Z,30.2513,-88.0778,9.68,1.3,277.1,-9999.0,'1111122,1111122,1111122' 
DISL,ioos:station:DISL:DISL:1,2010-03-01T08:00:00Z,30.2513,-88.0778,9.68,0.96,295.7,-9999.0,'1111122,1111122,1111122' 
DISL,ioos:station:DISL:DISL:1,2010-03-01T08:30:00Z,30.2513,-88.0778,9.68,1.03,332.4,-9999.0,'1111122,1111122,1111122' 
DISL,ioos:station:DISL:DISL:1,2010-03-01T09:00:00Z,30.2513,-88.0778,9.68,2.48,23.24,-9999.0,'1111122,1111122,1111122' 
DISL,ioos:station:DISL:DISL:1,2010-03-01T09:30:00Z,30.2513,-88.0778,9.68,3.06,22.26,-9999.0,'1111122,1111122,1111122' 
DISL,ioos:station:DISL:DISL:1,2010-03-01T10:00:00Z,30.2513,-88.0778,9.68,3.21,15.75,-9999.0,'1111122,1111122,1111122' 
DISL,ioos:station:DISL:DISL:1,2010-03-01T10:30:00Z,30.2513,-88.0778,9.68,3.23,46.66,-9999.0,'1111122,1111122,1111122' 
DISL,ioos:station:DISL:DISL:1,2010-03-01T11:00:00Z,30.2513,-88.0778,9.68,3.58,63.99,-9999.0,'1111122,1111122,1111122' 
DISL,ioos:station:DISL:DISL:1,2010-03-01T11:30:00Z,30.2513,-88.0778,9.68,3.82,42.04,-9999.0,'1111122,1111122,1111122' 
DISL,ioos:station:DISL:DISL:1,2010-03-01T12:00:00Z,30.2513,-88.0778,9.68,4.95,63.06,-9999.0,'1111122,1111122,1111122' 
DISL,ioos:station:DISL:DISL:1,2010-03-01T12:30:00Z,30.2513,-88.0778,9.68,5.28,53.9,-9999.0,'1111122,1111122,1111122' 
DISL,ioos:station:DISL:DISL:1,2010-03-01T13:00:00Z,30.2513,-88.0778,9.68,5.01,62.26,-9999.0,'1111122,1111122,1111122' 
DISL,ioos:station:DISL:DISL:1,2010-03-01T13:30:00Z,30.2513,-88.0778,9.68,5.21,75.4,-9999.0,'1111122,1111122,1111122' 
DISL,ioos:station:DISL:DISL:1,2010-03-01T14:00:00Z,30.2513,-88.0778,9.68,4.29,70.5,-9999.0,'1111122,1111122,1111122' 
DISL,ioos:station:DISL:DISL:1,2010-03-01T14:30:00Z,30.2513,-88.0778,9.68,4.34,66.19,-9999.0,'1111122,1111122,1111122' 
DISL,ioos:station:DISL:DISL:1,2010-03-01T15:00:00Z,30.2513,-88.0778,9.68,4.02,75.0,-9999.0,'1111122,1111122,1111122' 
DISL,ioos:station:DISL:DISL:1,2010-03-01T15:30:00Z,30.2513,-88.0778,9.68,2.91,54.16,-9999.0,'1111122,1111122,1111122' 
DISL,ioos:station:DISL:DISL:1,2010-03-01T16:00:00Z,30.2513,-88.0778,9.68,2.64,58.86,-9999.0,'1111122,1111122,1111122' 
DISL,ioos:station:DISL:DISL:1,2010-03-01T16:30:00Z,30.2513,-88.0778,9.68,3.31,58.85,-9999.0,'1111122,1111122,1111122' 
DISL,ioos:station:DISL:DISL:1,2010-03-01T17:00:00Z,30.2513,-88.0778,9.68,3.3,55.46,-9999.0,'1111122,1111122,1111122' 
DISL,ioos:station:DISL:DISL:1,2010-03-01T17:30:00Z,30.2513,-88.0778,9.68,3.03,80.8,-9999.0,'1111122,1111122,1111122' 
DISL,ioos:station:DISL:DISL:1,2010-03-01T18:00:00Z,30.2513,-88.0778,9.68,6.6,88.2,-9999.0,'1111122,1111122,1111122' 
DISL,ioos:station:DISL:DISL:1,2010-03-01T18:30:00Z,30.2513,-88.0778,9.68,7.21,96.6,-9999.0,'1111122,1111122,1111122' 
DISL,ioos:station:DISL:DISL:1,2010-03-01T19:00:00Z,30.2513,-88.0778,9.68,8.59,104.9,-9999.0,'1111122,1111122,1111122' 
DISL,ioos:station:DISL:DISL:1,2010-03-01T19:30:00Z,30.2513,-88.0778,9.68,9.79,101.9,-9999.0,'1111122,1111122,1111122' 
DISL,ioos:station:DISL:DISL:1,2010-03-01T20:00:00Z,30.2513,-88.0778,9.68,12.48,108.1,-9999.0,'1111122,1111122,1111122' 
DISL,ioos:station:DISL:DISL:1,2010-03-01T20:30:00Z,30.2513,-88.0778,9.68,9.55,113.6,-9999.0,'1111122,1111122,1111122' 
DISL,ioos:station:DISL:DISL:1,2010-03-01T21:00:00Z,30.2513,-88.0778,9.68,10.59,111.6,-9999.0,'1111122,1111122,1111122' 
DISL,ioos:station:DISL:DISL:1,2010-03-01T21:30:00Z,30.2513,-88.0778,9.68,12.02,110.4,-9999.0,'1111122,1111122,1111122' 
DISL,ioos:station:DISL:DISL:1,2010-03-01T22:00:00Z,30.2513,-88.0778,9.68,12.28,109.4,-9999.0,'1111122,1111122,1111122' 
DISL,ioos:station:DISL:DISL:1,2010-03-01T22:30:00Z,30.2513,-88.0778,9.68,11.22,114.9,-9999.0,'1111122,1111122,1111122' 
DISL,ioos:station:DISL:DISL:1,2010-03-01T23:00:00Z,30.2513,-88.0778,9.68,10.87,117.3,-9999.0,'1111122,1111122,1111122' 
DISL,ioos:station:DISL:DISL:1,2010-03-01T23:30:00Z,30.2513,-88.0778,9.68,10.92,113.9,-9999.0,'1111122,1111122,1111122' 
DISL,ioos:station:DISL:DISL:1,2010-03-02T00:00:00Z,30.2513,-88.0778,9.68,8.86,104.1,-9999.0,'1111122,1111122,1111122' 
DISL,ioos:station:DISL:DISL:1,2010-03-02T00:30:00Z,30.2513,-88.0778,9.68,11.88,39.05,-9999.0,'1111122,1111122,1111122' 
DISL,ioos:station:DISL:DISL:1,2010-03-02T01:00:00Z,30.2513,-88.0778,9.68,9.94,20.61,-9999.0,'1111122,1111122,1111122' 
DISL,ioos:station:DISL:DISL:1,2010-03-02T01:30:00Z,30.2513,-88.0778,9.68,11.44,41.75,-9999.0,'1111122,1111122,1111122' 
DISL,ioos:station:DISL:DISL:1,2010-03-02T02:00:00Z,30.2513,-88.0778,9.68,11.6,1.006,-9999.0,'1111122,1111122,1111122' 
DISL,ioos:station:DISL:DISL:1,2010-03-02T02:30:00Z,30.2513,-88.0778,9.68,16.65,319.7,-9999.0,'1111122,1111122,1111122' 
DISL,ioos:station:DISL:DISL:1,2010-03-02T03:00:00Z,30.2513,-88.0778,9.68,16.14,311.6,-9999.0,'1111122,1111122,1111122' 
DISL,ioos:station:DISL:DISL:1,2010-03-02T03:30:00Z,30.2513,-88.0778,9.68,16.94,317.4,-9999.0,'1111122,1111122,1111122' 
DISL,ioos:station:DISL:DISL:1,2010-03-02T04:00:00Z,30.2513,-88.0778,9.68,17.52,1.04,-9999.0,'1111122,1111122,1111122' 
DISL,ioos:station:DISL:DISL:1,2010-03-02T04:30:00Z,30.2513,-88.0778,9.68,18.13,19.36,-9999.0,'1111122,1111122,1111122' 
DISL,ioos:station:DISL:DISL:1,2010-03-02T05:00:00Z,30.2513,-88.0778,9.68,15.62,48.65,-9999.0,'1111122,1111122,1111122' 
DISL,ioos:station:DISL:DISL:1,2010-03-02T05:30:00Z,30.2513,-88.0778,9.68,13.99,59.66,-9999.0,'1111122,1111122,1111122' 
DISL,ioos:station:DISL:DISL:1,2010-03-02T06:00:00Z,30.2513,-88.0778,9.68,10.58,57.83,-9999.0,'1111122,1111122,1111122' 
DISL,ioos:station:DISL:DISL:1,2010-03-02T06:30:00Z,30.2513,-88.0778,9.68,7.94,39.08,-9999.0,'1111122,1111122,1111122' 
DISL,ioos:station:DISL:DISL:1,2010-03-02T07:00:00Z,30.2513,-88.0778,9.68,7.79,18.57,-9999.0,'1111122,1111122,1111122' 
DISL,ioos:station:DISL:DISL:1,2010-03-02T07:30:00Z,30.2513,-88.0778,9.68,7.5,7.46,-9999.0,'1111122,1111122,1111122' 
DISL,ioos:station:DISL:DISL:1,2010-03-02T08:00:00Z,30.2513,-88.0778,9.68,7.03,355.6,-9999.0,'1111122,1111122,1111122' 
DISL,ioos:station:DISL:DISL:1,2010-03-02T08:30:00Z,30.2513,-88.0778,9.68,5.64,342.2,-9999.0,'1111122,1111122,1111122' 
DISL,ioos:station:DISL:DISL:1,2010-03-02T09:00:00Z,30.2513,-88.0778,9.68,6.04,336.1,-9999.0,'1111122,1111122,1111122' 
DISL,ioos:station:DISL:DISL:1,2010-03-02T09:30:00Z,30.2513,-88.0778,9.68,5.83,329.2,-9999.0,'1111122,1111122,1111122' 
DISL,ioos:station:DISL:DISL:1,2010-03-02T10:00:00Z,30.2513,-88.0778,9.68,6.18,327.9,-9999.0,'1111122,1111122,1111122' 
DISL,ioos:station:DISL:DISL:1,2010-03-02T10:30:00Z,30.2513,-88.0778,9.68,7.36,305.4,-9999.0,'1111122,1111122,1111122' 
DISL,ioos:station:DISL:DISL:1,2010-03-02T11:00:00Z,30.2513,-88.0778,9.68,8.29,299.3,-9999.0,'1111122,1111122,1111122' 
DISL,ioos:station:DISL:DISL:1,2010-03-02T11:30:00Z,30.2513,-88.0778,9.68,8.75,308.0,-9999.0,'1111122,1111122,1111122' 
DISL,ioos:station:DISL:DISL:1,2010-03-02T12:00:00Z,30.2513,-88.0778,9.68,9.16,319.0,-9999.0,'1111122,1111122,1111122' 
DISL,ioos:station:DISL:DISL:1,2010-03-02T12:30:00Z,30.2513,-88.0778,9.68,9.71,306.6,-9999.0,'1111122,1111122,1111122' 
DISL,ioos:station:DISL:DISL:1,2010-03-02T13:00:00Z,30.2513,-88.0778,9.68,11.15,313.9,-9999.0,'1111122,1111122,1111122' 
DISL,ioos:station:DISL:DISL:1,2010-03-02T13:30:00Z,30.2513,-88.0778,9.68,11.1,313.5,-9999.0,'1111122,1111122,1111122' 
DISL,ioos:station:DISL:DISL:1,2010-03-02T14:00:00Z,30.2513,-88.0778,9.68,11.99,316.4,-9999.0,'1111122,1111122,1111122' 
DISL,ioos:station:DISL:DISL:1,2010-03-02T14:30:00Z,30.2513,-88.0778,9.68,11.27,316.9,-9999.0,'1111122,1111122,1111122' 
DISL,ioos:station:DISL:DISL:1,2010-03-02T15:00:00Z,30.2513,-88.0778,9.68,11.63,317.7,-9999.0,'1111122,1111122,1111122' 
DISL,ioos:station:DISL:DISL:1,2010-03-02T15:30:00Z,30.2513,-88.0778,9.68,11.54,321.8,-9999.0,'1111122,1111122,1111122' 
DISL,ioos:station:DISL:DISL:1,2010-03-02T16:00:00Z,30.2513,-88.0778,9.68,11.73,307.9,-9999.0,'1111122,1111122,1111122' 
DISL,ioos:station:DISL:DISL:1,2010-03-02T16:30:00Z,30.2513,-88.0778,9.68,11.72,314.8,-9999.0,'1111122,1111122,1111122' 
DISL,ioos:station:DISL:DISL:1,2010-03-02T17:00:00Z,30.2513,-88.0778,9.68,10.36,317.0,-9999.0,'1111122,1111122,1111122' 
DISL,ioos:station:DISL:DISL:1,2010-03-02T17:30:00Z,30.2513,-88.0778,9.68,9.36,323.0,-9999.0,'1111122,1111122,1111122' 
DISL,ioos:station:DISL:DISL:1,2010-03-02T18:00:00Z,30.2513,-88.0778,9.68,10.14,318.4,-9999.0,'1111122,1111122,1111122' 
DISL,ioos:station:DISL:DISL:1,2010-03-02T18:30:00Z,30.2513,-88.0778,9.68,10.17,312.8,-9999.0,'1111122,1111122,1111122' 
DISL,ioos:station:DISL:DISL:1,2010-03-02T19:00:00Z,30.2513,-88.0778,9.68,11.28,304.7,-9999.0,'1111122,1111122,1111122' 
DISL,ioos:station:DISL:DISL:1,2010-03-02T19:30:00Z,30.2513,-88.0778,9.68,10.92,303.6,-9999.0,'1111122,1111122,1111122' 
DISL,ioos:station:DISL:DISL:1,2010-03-02T20:00:00Z,30.2513,-88.0778,9.68,11.06,304.7,-9999.0,'1111122,1111122,1111122' 
DISL,ioos:station:DISL:DISL:1,2010-03-02T20:30:00Z,30.2513,-88.0778,9.68,11.67,306.8,-9999.0,'1111122,1111122,1111122' 
DISL,ioos:station:DISL:DISL:1,2010-03-02T21:00:00Z,30.2513,-88.0778,9.68,11.21,307.4,-9999.0,'1111122,1111122,1111122' 
DISL,ioos:station:DISL:DISL:1,2010-03-02T21:30:00Z,30.2513,-88.0778,9.68,11.01,309.8,-9999.0,'1111122,1111122,1111122' 
DISL,ioos:station:DISL:DISL:1,2010-03-02T22:00:00Z,30.2513,-88.0778,9.68,11.52,306.3,-9999.0,'1111122,1111122,1111122' 
DISL,ioos:station:DISL:DISL:1,2010-03-02T22:30:00Z,30.2513,-88.0778,9.68,12.74,311.2,-9999.0,'1111122,1111122,1111122' 
DISL,ioos:station:DISL:DISL:1,2010-03-02T23:00:00Z,30.2513,-88.0778,9.68,11.34,312.3,-9999.0,'1111122,1111122,1111122' 
DISL,ioos:station:DISL:DISL:1,2010-03-02T23:30:00Z,30.2513,-88.0778,9.68,11.08,305.3,-9999.0,'1111122,1111122,1111122' 
DISL,ioos:station:DISL:DISL:1,2010-03-03T00:00:00Z,30.2513,-88.0778,9.68,10.91,310.4,-9999.0,'1111122,1111122,1111122' 
DISL,ioos:station:DISL:DISL:1,2010-03-03T00:30:00Z,30.2513,-88.0778,9.68,10.31,306.5,-9999.0,'1111122,1111122,1111122' 
DISL,ioos:station:DISL:DISL:1,2010-03-03T01:00:00Z,30.2513,-88.0778,9.68,10.58,311.1,-9999.0,'1111122,1111122,1111122' 
DISL,ioos:station:DISL:DISL:1,2010-03-03T01:30:00Z,30.2513,-88.0778,9.68,10.94,308.3,-9999.0,'1111122,1111122,1111122' 
DISL,ioos:station:DISL:DISL:1,2010-03-03T02:00:00Z,30.2513,-88.0778,9.68,10.79,316.4,-9999.0,'1111122,1111122,1111122' 
DISL,ioos:station:DISL:DISL:1,2010-03-03T02:30:00Z,30.2513,-88.0778,9.68,10.23,312.4,-9999.0,'1111122,1111122,1111122' 
DISL,ioos:station:DISL:DISL:1,2010-03-03T03:00:00Z,30.2513,-88.0778,9.68,9.19,309.9,-9999.0,'1111122,1111122,1111122' 
DISL,ioos:station:DISL:DISL:1,2010-03-03T03:30:00Z,30.2513,-88.0778,9.68,9.6,310.7,-9999.0,'1111122,1111122,1111122' 
DISL,ioos:station:DISL:DISL:1,2010-03-03T04:00:00Z,30.2513,-88.0778,9.68,8.2,310.8,-9999.0,'1111122,1111122,1111122' 
DISL,ioos:station:DISL:DISL:1,2010-03-03T04:30:00Z,30.2513,-88.0778,9.68,9.34,305.6,-9999.0,'1111122,1111122,1111122' 
DISL,ioos:station:DISL:DISL:1,2010-03-03T05:00:00Z,30.2513,-88.0778,9.68,9.2,307.1,-9999.0,'1111122,1111122,1111122' 
DISL,ioos:station:DISL:DISL:1,2010-03-03T05:30:00Z,30.2513,-88.0778,9.68,8.88,302.9,-9999.0,'1111122,1111122,1111122' 
DISL,ioos:station:DISL:DISL:1,2010-03-03T06:00:00Z,30.2513,-88.0778,9.68,9.07,304.8,-9999.0,'1111122,1111122,1111122' 
DISL,ioos:station:DISL:DISL:1,2010-03-03T06:30:00Z,30.2513,-88.0778,9.68,8.79,309.0,-9999.0,'1111122,1111122,1111122' 
DISL,ioos:station:DISL:DISL:1,2010-03-03T07:00:00Z,30.2513,-88.0778,9.68,7.83,304.4,-9999.0,'1111122,1111122,1111122' 
DISL,ioos:station:DISL:DISL:1,2010-03-03T07:30:00Z,30.2513,-88.0778,9.68,8.24,302.2,-9999.0,'1111122,1111122,1111122' 
DISL,ioos:station:DISL:DISL:1,2010-03-03T08:00:00Z,30.2513,-88.0778,9.68,7.23,296.8,-9999.0,'1111122,1111122,1111122' 
DISL,ioos:station:DISL:DISL:1,2010-03-03T08:30:00Z,30.2513,-88.0778,9.68,7.54,299.0,-9999.0,'1111122,1111122,1111122' 
DISL,ioos:station:DISL:DISL:1,2010-03-03T09:00:00Z,30.2513,-88.0778,9.68,7.56,300.9,-9999.0,'1111122,1111122,1111122' 
DISL,ioos:station:DISL:DISL:1,2010-03-03T09:30:00Z,30.2513,-88.0778,9.68,7.42,296.9,-9999.0,'1111122,1111122,1111122' 
DISL,ioos:station:DISL:DISL:1,2010-03-03T10:00:00Z,30.2513,-88.0778,9.68,8.31,298.1,-9999.0,'1111122,1111122,1111122' 
DISL,ioos:station:DISL:DISL:1,2010-03-03T10:30:00Z,30.2513,-88.0778,9.68,8.36,296.7,-9999.0,'1111122,1111122,1111122' 
DISL,ioos:station:DISL:DISL:1,2010-03-03T11:00:00Z,30.2513,-88.0778,9.68,8.16,297.4,-9999.0,'1111122,1111122,1111122' 
DISL,ioos:station:DISL:DISL:1,2010-03-03T11:30:00Z,30.2513,-88.0778,9.68,7.95,297.3,-9999.0,'1111122,1111122,1111122' 
DISL,ioos:station:DISL:DISL:1,2010-03-03T12:00:00Z,30.2513,-88.0778,9.68,8.81,304.3,-9999.0,'1111122,1111122,1111122' 
DISL,ioos:station:DISL:DISL:1,2010-03-03T12:30:00Z,30.2513,-88.0778,9.68,8.54,312.2,-9999.0,'1111122,1111122,1111122' 
DISL,ioos:station:DISL:DISL:1,2010-03-03T13:00:00Z,30.2513,-88.0778,9.68,8.11,308.6,-9999.0,'1111122,1111122,1111122' 
DISL,ioos:station:DISL:DISL:1,2010-03-03T13:30:00Z,30.2513,-88.0778,9.68,8.02,312.4,-9999.0,'1111122,1111122,1111122' 
DISL,ioos:station:DISL:DISL:1,2010-03-03T14:00:00Z,30.2513,-88.0778,9.68,7.81,307.4,-9999.0,'1111122,1111122,1111122' 
DISL,ioos:station:DISL:DISL:1,2010-03-03T14:30:00Z,30.2513,-88.0778,9.68,8.01,315.9,-9999.0,'1111122,1111122,1111122' 
DISL,ioos:station:DISL:DISL:1,2010-03-03T15:00:00Z,30.2513,-88.0778,9.68,7.57,312.9,-9999.0,'1111122,1111122,1111122' 
DISL,ioos:station:DISL:DISL:1,2010-03-03T15:30:00Z,30.2513,-88.0778,9.68,6.53,313.8,-9999.0,'1111122,1111122,1111122' 
DISL,ioos:station:DISL:DISL:1,2010-03-03T16:00:00Z,30.2513,-88.0778,9.68,5.92,314.4,-9999.0,'1111122,1111122,1111122' 
DISL,ioos:station:DISL:DISL:1,2010-03-03T16:30:00Z,30.2513,-88.0778,9.68,6.32,313.0,-9999.0,'1111122,1111122,1111122' 
DISL,ioos:station:DISL:DISL:1,2010-03-03T17:00:00Z,30.2513,-88.0778,9.68,6.06,308.2,-9999.0,'1111122,1111122,1111122' 
DISL,ioos:station:DISL:DISL:1,2010-03-03T17:30:00Z,30.2513,-88.0778,9.68,5.13,282.6,-9999.0,'1111122,1111122,1111122' 
DISL,ioos:station:DISL:DISL:1,2010-03-03T18:00:00Z,30.2513,-88.0778,9.68,5.17,282.6,-9999.0,'1111122,1111122,1111122' 
DISL,ioos:station:DISL:DISL:1,2010-03-03T18:30:00Z,30.2513,-88.0778,9.68,5.63,276.3,-9999.0,'1111122,1111122,1111122' 
DISL,ioos:station:DISL:DISL:1,2010-03-03T19:00:00Z,30.2513,-88.0778,9.68,5.83,277.7,-9999.0,'1111122,1111122,1111122' 
DISL,ioos:station:DISL:DISL:1,2010-03-03T19:30:00Z,30.2513,-88.0778,9.68,6.07,275.5,-9999.0,'1111122,1111122,1111122' 
DISL,ioos:station:DISL:DISL:1,2010-03-03T20:00:00Z,30.2513,-88.0778,9.68,6.12,279.4,-9999.0,'1111122,1111122,1111122' 
DISL,ioos:station:DISL:DISL:1,2010-03-03T20:30:00Z,30.2513,-88.0778,9.68,4.75,266.0,-9999.0,'1111122,1111122,1111122' 
DISL,ioos:station:DISL:DISL:1,2010-03-03T21:00:00Z,30.2513,-88.0778,9.68,4.96,280.3,-9999.0,'1111122,1111122,1111122' 
DISL,ioos:station:DISL:DISL:1,2010-03-03T21:30:00Z,30.2513,-88.0778,9.68,5.22,271.0,-9999.0,'1111122,1111122,1111122' 
DISL,ioos:station:DISL:DISL:1,2010-03-03T22:00:00Z,30.2513,-88.0778,9.68,4.5,264.4,-9999.0,'1111122,1111122,1111122' 
DISL,ioos:station:DISL:DISL:1,2010-03-03T22:30:00Z,30.2513,-88.0778,9.68,3.82,269.8,-9999.0,'1111122,1111122,1111122' 
DISL,ioos:station:DISL:DISL:1,2010-03-03T23:00:00Z,30.2513,-88.0778,9.68,5.09,307.8,-9999.0,'1111122,1111122,1111122' 
DISL,ioos:station:DISL:DISL:1,2010-03-03T23:30:00Z,30.2513,-88.0778,9.68,5.68,308.6,-9999.0,'1111122,1111122,1111122' 
DISL,ioos:station:DISL:DISL:1,2010-03-04T00:00:00Z,30.2513,-88.0778,9.68,6.29,312.5,-9999.0,'1111122,1111122,1111122' 
DISL,ioos:station:DISL:DISL:1,2010-03-04T00:30:00Z,30.2513,-88.0778,9.68,5.63,318.2,-9999.0,'1111122,1111122,1111122' 
DISL,ioos:station:DISL:DISL:1,2010-03-04T01:00:00Z,30.2513,-88.0778,9.68,4.73,323.9,-9999.0,'1111122,1111122,1111122' 
DISL,ioos:station:DISL:DISL:1,2010-03-04T01:30:00Z,30.2513,-88.0778,9.68,4.71,316.5,-9999.0,'1111122,1111122,1111122' 
DISL,ioos:station:DISL:DISL:1,2010-03-04T02:00:00Z,30.2513,-88.0778,9.68,4.8,320.7,-9999.0,'1111122,1111122,1111122' 
DISL,ioos:station:DISL:DISL:1,2010-03-04T02:30:00Z,30.2513,-88.0778,9.68,6.15,320.1,-9999.0,'1111122,1111122,1111122' 
DISL,ioos:station:DISL:DISL:1,2010-03-04T03:00:00Z,30.2513,-88.0778,9.68,6.73,312.9,-9999.0,'1111122,1111122,1111122' 
DISL,ioos:station:DISL:DISL:1,2010-03-04T03:30:00Z,30.2513,-88.0778,9.68,7.03,316.1,-9999.0,'1111122,1111122,1111122' 
DISL,ioos:station:DISL:DISL:1,2010-03-04T04:00:00Z,30.2513,-88.0778,9.68,7.44,324.9,-9999.0,'1111122,1111122,1111122' 
DISL,ioos:station:DISL:DISL:1,2010-03-04T04:30:00Z,30.2513,-88.0778,9.68,7.98,332.4,-9999.0,'1111122,1111122,1111122' 
DISL,ioos:station:DISL:DISL:1,2010-03-04T05:00:00Z,30.2513,-88.0778,9.68,7.71,332.5,-9999.0,'1111122,1111122,1111122' 
DISL,ioos:station:DISL:DISL:1,2010-03-04T05:30:00Z,30.2513,-88.0778,9.68,7.33,330.4,-9999.0,'1111122,1111122,1111122' 
DISL,ioos:station:DISL:DISL:1,2010-03-04T06:00:00Z,30.2513,-88.0778,9.68,6.8,333.7,-9999.0,'1111122,1111122,1111122' 
DISL,ioos:station:DISL:DISL:1,2010-03-04T06:30:00Z,30.2513,-88.0778,9.68,6.56,340.6,-9999.0,'1111122,1111122,1111122' 
DISL,ioos:station:DISL:DISL:1,2010-03-04T07:00:00Z,30.2513,-88.0778,9.68,6.98,343.4,-9999.0,'1111122,1111122,1111122' 
DISL,ioos:station:DISL:DISL:1,2010-03-04T07:30:00Z,30.2513,-88.0778,9.68,6.05,342.1,-9999.0,'1111122,1111122,1111122' 
DISL,ioos:station:DISL:DISL:1,2010-03-04T08:00:00Z,30.2513,-88.0778,9.68,5.32,346.8,-9999.0,'1111122,1111122,1111122' 
DISL,ioos:station:DISL:DISL:1,2010-03-04T08:30:00Z,30.2513,-88.0778,9.68,4.41,355.8,-9999.0,'1111122,1111122,1111122' 
DISL,ioos:station:DISL:DISL:1,2010-03-04T09:00:00Z,30.2513,-88.0778,9.68,4.07,355.0,-9999.0,'1111122,1111122,1111122' 
DISL,ioos:station:DISL:DISL:1,2010-03-04T09:30:00Z,30.2513,-88.0778,9.68,3.55,333.2,-9999.0,'1111122,1111122,1111122' 
DISL,ioos:station:DISL:DISL:1,2010-03-04T10:00:00Z,30.2513,-88.0778,9.68,3.91,326.5,-9999.0,'1111122,1111122,1111122' 
DISL,ioos:station:DISL:DISL:1,2010-03-04T10:30:00Z,30.2513,-88.0778,9.68,4.38,328.7,-9999.0,'1111122,1111122,1111122' 
DISL,ioos:station:DISL:DISL:1,2010-03-04T11:00:00Z,30.2513,-88.0778,9.68,4.29,327.3,-9999.0,'1111122,1111122,1111122' 
DISL,ioos:station:DISL:DISL:1,2010-03-04T11:30:00Z,30.2513,-88.0778,9.68,5.01,328.0,-9999.0,'1111122,1111122,1111122' 
DISL,ioos:station:DISL:DISL:1,2010-03-04T12:00:00Z,30.2513,-88.0778,9.68,5.83,329.9,-9999.0,'1111122,1111122,1111122' 
DISL,ioos:station:DISL:DISL:1,2010-03-04T12:30:00Z,30.2513,-88.0778,9.68,5.77,342.9,-9999.0,'1111122,1111122,1111122' 
DISL,ioos:station:DISL:DISL:1,2010-03-04T13:00:00Z,30.2513,-88.0778,9.68,5.02,334.6,-9999.0,'1111122,1111122,1111122' 
DISL,ioos:station:DISL:DISL:1,2010-03-04T13:30:00Z,30.2513,-88.0778,9.68,4.56,338.4,-9999.0,'1111122,1111122,1111122' 
DISL,ioos:station:DISL:DISL:1,2010-03-04T14:00:00Z,30.2513,-88.0778,9.68,4.4,342.4,-9999.0,'1111122,1111122,1111122' 
DISL,ioos:station:DISL:DISL:1,2010-03-04T14:30:00Z,30.2513,-88.0778,9.68,4.32,350.4,-9999.0,'1111122,1111122,1111122' 
DISL,ioos:station:DISL:DISL:1,2010-03-04T15:00:00Z,30.2513,-88.0778,9.68,4.64,350.3,-9999.0,'1111122,1111122,1111122' 
DISL,ioos:station:DISL:DISL:1,2010-03-04T15:30:00Z,30.2513,-88.0778,9.68,4.57,351.5,-9999.0,'1111122,1111122,1111122' 
DISL,ioos:station:DISL:DISL:1,2010-03-04T16:00:00Z,30.2513,-88.0778,9.68,4.42,16.04,-9999.0,'1111122,1111122,1111122' 
DISL,ioos:station:DISL:DISL:1,2010-03-04T16:30:00Z,30.2513,-88.0778,9.68,4.45,29.0,-9999.0,'1111122,1111122,1111122' 
DISL,ioos:station:DISL:DISL:1,2010-03-04T17:00:00Z,30.2513,-88.0778,9.68,3.87,27.6,-9999.0,'1111122,1111122,1111122' 
DISL,ioos:station:DISL:DISL:1,2010-03-04T17:30:00Z,30.2513,-88.0778,9.68,4.28,31.66,-9999.0,'1111122,1111122,1111122' 
DISL,ioos:station:DISL:DISL:1,2010-03-04T18:00:00Z,30.2513,-88.0778,9.68,3.45,32.83,-9999.0,'1111122,1111122,1111122' 
DISL,ioos:station:DISL:DISL:1,2010-03-04T18:30:00Z,30.2513,-88.0778,9.68,1.94,6.205,-9999.0,'1111122,1111122,1111122' 
DISL,ioos:station:DISL:DISL:1,2010-03-04T19:00:00Z,30.2513,-88.0778,9.68,1.61,35.43,-9999.0,'1111122,1111122,1111122' 
DISL,ioos:station:DISL:DISL:1,2010-03-04T19:30:00Z,30.2513,-88.0778,9.68,1.31,33.2,-9999.0,'1111122,1111122,1111122' 
DISL,ioos:station:DISL:DISL:1,2010-03-04T20:00:00Z,30.2513,-88.0778,9.68,1.35,60.73,-9999.0,'1111122,1111122,1111122' 
DISL,ioos:station:DISL:DISL:1,2010-03-04T20:30:00Z,30.2513,-88.0778,9.68,1.46,86.7,-9999.0,'1111122,1111122,1111122' 
DISL,ioos:station:DISL:DISL:1,2010-03-04T21:00:00Z,30.2513,-88.0778,9.68,1.94,113.9,-9999.0,'1111122,1111122,1111122' 
DISL,ioos:station:DISL:DISL:1,2010-03-04T21:30:00Z,30.2513,-88.0778,9.68,1.59,167.4,-9999.0,'1111122,1111122,1111122' 
DISL,ioos:station:DISL:DISL:1,2010-03-04T22:00:00Z,30.2513,-88.0778,9.68,1.7,174.0,-9999.0,'1111122,1111122,1111122' 
DISL,ioos:station:DISL:DISL:1,2010-03-04T22:30:00Z,30.2513,-88.0778,9.68,2.48,196.8,-9999.0,'1111122,1111122,1111122' 
DISL,ioos:station:DISL:DISL:1,2010-03-04T23:00:00Z,30.2513,-88.0778,9.68,1.95,208.0,-9999.0,'1111122,1111122,1111122' 
DISL,ioos:station:DISL:DISL:1,2010-03-04T23:30:00Z,30.2513,-88.0778,9.68,2.2,210.6,-9999.0,'1111122,1111122,1111122' 
DISL,ioos:station:DISL:DISL:1,2010-03-05T00:00:00Z,30.2513,-88.0778,9.68,0.93,191.8,-9999.0,'1111122,1111122,1111122' 
DISL,ioos:station:DISL:DISL:1,2010-03-05T00:30:00Z,30.2513,-88.0778,9.68,1.35,242.4,-9999.0,'1111122,1111122,1111122' 
DISL,ioos:station:DISL:DISL:1,2010-03-05T01:00:00Z,30.2513,-88.0778,9.68,1.77,254.2,-9999.0,'1111122,1111122,1111122' 
DISL,ioos:station:DISL:DISL:1,2010-03-05T01:30:00Z,30.2513,-88.0778,9.68,2.37,257.2,-9999.0,'1111122,1111122,1111122' 
DISL,ioos:station:DISL:DISL:1,2010-03-05T02:00:00Z,30.2513,-88.0778,9.68,2.03,253.9,-9999.0,'1111122,1111122,1111122' 
DISL,ioos:station:DISL:DISL:1,2010-03-05T02:30:00Z,30.2513,-88.0778,9.68,2.56,265.0,-9999.0,'1111122,1111122,1111122' 
DISL,ioos:station:DISL:DISL:1,2010-03-05T03:00:00Z,30.2513,-88.0778,9.68,2.68,267.3,-9999.0,'1111122,1111122,1111122' 
DISL,ioos:station:DISL:DISL:1,2010-03-05T03:30:00Z,30.2513,-88.0778,9.68,2.95,269.2,-9999.0,'1111122,1111122,1111122' 